Skip Page Navigation
NASA JPL Caltech
NASA Logo - Jet Propulsion Laboratory + View the NASA Portal
+ Center for Near-Earth Object Studies
JPL Home Earth Solar System Stars & Galaxies Technology
JPL Solar System Dynamics
BODIES ORBITS EPHEMERIDES TOOLS PHYSICAL DATA DISCOVERY FAQ SITE MAP
JPL Small-Body Database Browser
Search: [ help ]  
46223 (2001 GV7)
Classification: Main-belt Asteroid          SPK-ID: 2046223
Ephemeris | Orbit Diagram | Orbital Elements | Mission Design | Physical Parameters | Discovery Circumstances ]

[ hide orbit diagram ]

For accurate long-term ephemerides, please instead use our Horizons system.This orbit viewer was implemented using two-body methods, and hence should not be used for determining accurate long-term trajectories (over several years or decades) or planetary encounter circumstances.


Orbital Elements at Epoch 2459396.5 (2021-Jul-01.0) TDB
Reference: JPL 19 (heliocentric ecliptic J2000)
 Element Value Uncertainty (1-sigma)   Units 
e .1413441474680396 4.1078e-08  
a 2.587759167939932 1.1668e-08 au
q 2.221994554494859 1.1025e-07 au
i 8.257639830149074 4.483e-06 deg
node 136.5679196806959 2.7569e-05 deg
peri 15.61037913638067 3.178e-05 deg
M 349.5365779393956 1.7362e-05 deg
tp 2459440.693200403126
(2021-Aug-14.19320040)
7.3486e-05 TDB
period 1520.492249378522
4.16
1.0284e-05
2.816e-08
d
yr
n .2367654291872547 1.6014e-09 deg/d
Q 2.953523781385006 1.3318e-08 au
  Orbit Determination Parameters
   # obs. used (total)      849  
   data-arc span      8296 days (22.71 yr)  
   first obs. used      1998-08-17  
   last obs. used      2021-05-04  
   planetary ephem.      DE441  
   SB-pert. ephem.      SB441-N16  
   condition code      0  
   norm. resid. RMS      .52226  
   source      ORB  
   producer      Otto Matic  
   solution date      2021-Jul-09 10:34:45  

Additional Information
 Earth MOID = 1.23497 au 
 Jupiter MOID = 2.04542 au 
 T_jup = 3.393 
[ show covariance matrix ]

Ephemeris | Orbit Diagram | Orbital Elements | Mission Design | Physical Parameters | Discovery Circumstances ]

Physical Parameter Table
Parameter Symbol Value Units Sigma Reference Notes
absolute magnitude H 15.17   n/a MPCxxxxx  

46223 (2001 GV7)          Discovered 2001-Apr-15 by LINEAR at Socorro
Reference: 20020822/Numbers.arcLast Updated: 2004-04-19

Alternate Designations
 2001 GV7 = 1999 UW51 
Ephemeris | Orbit Diagram | Orbital Elements | Mission Design | Physical Parameters | Discovery Circumstances ]
ABOUT SSD CREDITS/AWARDS PRIVACY/COPYRIGHT GLOSSARY LINKS
FirstGov 2021-Jul-24 22:54 UT
(server date/time)  
NASA Home Page
Site Manager:   Ryan S. Park
Webmaster  Alan B. Chamberlin